Weather History for Muncie, IN

Change the Weather History Date:

Monday, February 21, 2011

  Actual Average Record
Temperature  
Mean Temperature 38 °F 31 °F  
Max Temperature 55 °F 40 °F 64 °F (1983)
Min Temperature 21 °F 23 °F -126 °F (1999)
Degree Days  
Heating Degree Days 27 34  
Month to date heating degree days 740 762  
Since 1 July heating degree days 4332 4155  
Cooling Degree Days 0 0  
Month to date cooling degree days 0 0  
Year to date cooling degree days 0 0  
Moisture  
Dew Point 30 °F    
Average Humidity 86    
Maximum Humidity 100    
Minimum Humidity 71    
Precipitation  
Precipitation 0.70 in 0.07 in 0.70 in (2011)
Month to date precipitation 0.74 1.73  
Year to date precipitation 1.59 3.96  
Sea Level Pressure  
Sea Level Pressure 29.71 in    
Wind  
Wind Speed 14 mph (ENE)    
Max Wind Speed 23 mph    
Max Gust Speed 29 mph    
Visibility 5 miles    
Events Rain , Snow    
T = Trace of Precipitation, MM = Missing Value Source: NWS Daily Summary

Daily Weather History Graph

Daily Weather History Graph

Search for Another Location

Airport:

Trip Planner

Search our weather history database for the weather conditions in past years. The results will help you decide how hot, cold, wet, or windy it might be!

Date:

Astronomy

Feb. 21, 2011 Rise Set
Actual Time 7:27 AM EST 6:23 PM EST
Civil Twilight 6:59 AM EST 6:51 PM EST
Nautical Twilight 6:27 AM EST 7:23 PM EST
Astronomical Twilight 5:56 AM EST 7:54 PM EST
Moon 10:58 PM EST (2/21) 8:55 AM EST (2/21)
Length of Visible Light 11h 51m
Length of Day
10h 56m
Waning Gibbous, 84% of the Moon is Illuminated
Feb 21
Waning Gibbous
Feb 24
Last Quarter
Mar 4
New
Mar 12
First Quarter
Mar 19
Full

Hourly Weather History & Observations

Time (EST) Temp. Windchill Dew Point Humidity Pressure Visibility Wind Dir Wind Speed Gust Speed Precip Events Conditions
12:53 AM 55.0 °F - 46.9 °F 74% 29.60 in 10.0 mi SW 13.8 mph 20.7 mph N/A   Overcast
1:17 AM 55.4 °F - 48.2 °F 77% 29.59 in 10.0 mi SW 10.4 mph - 0.00 in   Overcast
1:53 AM 55.0 °F - 48.9 °F 80% 29.60 in 10.0 mi SW 11.5 mph - 0.00 in   Overcast
2:29 AM 48.2 °F - 44.6 °F 87% 29.61 in 9.0 mi NNE 4.6 mph - N/A   Overcast
2:53 AM 41.0 °F 35.2 °F 37.9 °F 89% 29.62 in 9.0 mi NE 9.2 mph - N/A   Overcast
3:23 AM 37.4 °F 32.1 °F 35.6 °F 93% 29.62 in 6.0 mi NE 6.9 mph - N/A   Overcast
3:53 AM 37.0 °F 31.6 °F 35.1 °F 93% 29.62 in 5.0 mi ENE 6.9 mph - N/A   Overcast
4:05 AM 37.4 °F 32.8 °F 35.6 °F 93% 29.62 in 5.0 mi East 5.8 mph - 0.00 in Rain Light Rain
4:28 AM 35.6 °F 27.1 °F 33.8 °F 93% 29.64 in 3.0 mi NNE 12.7 mph - 0.03 in Rain Light Rain
4:36 AM 35.6 °F 26.2 °F 33.8 °F 93% 29.65 in 2.0 mi NNE 15.0 mph - 0.04 in Rain Rain
4:49 AM 35.6 °F 26.6 °F 33.8 °F 93% 29.65 in 3.0 mi NE 13.8 mph - 0.07 in Rain Light Rain
4:50 AM 35.1 °F 25.5 °F 33.1 °F 92% 29.66 in 3.0 mi NE 15.0 mph - 0.07 in Rain Light Rain
5:25 AM 33.8 °F 25.8 °F 32.0 °F 93% 29.66 in 2.5 mi East 10.4 mph - 0.10 in Rain Rain
5:33 AM 33.8 °F 25.8 °F 33.8 °F 100% 29.67 in 4.0 mi East 10.4 mph - 0.11 in Rain Rain
5:53 AM 34.0 °F 26.6 °F 33.1 °F 96% 29.68 in 6.0 mi ESE 9.2 mph - 0.13 in Rain Light Rain
6:04 AM 33.8 °F 24.3 °F 32.0 °F 93% 29.70 in 5.0 mi NE 13.8 mph - 0.01 in Rain Light Rain
6:53 AM 33.1 °F 23.0 °F 30.9 °F 92% 29.71 in 4.0 mi NE 15.0 mph - 0.10 in Rain Rain
7:14 AM 32.0 °F 22.5 °F 30.2 °F 93% 29.68 in 6.0 mi East 12.7 mph 26.5 mph 0.03 in   Overcast
7:21 AM 32.0 °F 21.2 °F 30.2 °F 93% 29.67 in 7.0 mi East 16.1 mph - 0.03 in   Overcast
7:53 AM 32.0 °F 20.8 °F 30.9 °F 96% 29.66 in 10.0 mi East 17.3 mph 24.2 mph 0.04 in   Overcast
8:53 AM 33.1 °F 23.9 °F 30.9 °F 92% 29.73 in 6.0 mi ENE 12.7 mph - N/A   Overcast
9:53 AM 33.1 °F 23.9 °F 30.0 °F 89% 29.75 in 5.0 mi ENE 12.7 mph - 0.00 in Rain Light Rain
10:07 AM 33.8 °F 25.3 °F 30.2 °F 87% 29.75 in 2.5 mi East 11.5 mph - 0.03 in Rain Rain
10:16 AM 33.8 °F 24.3 °F 30.2 °F 87% 29.73 in 3.0 mi East 13.8 mph - 0.04 in Rain Light Rain
10:53 AM 33.1 °F 22.2 °F 30.9 °F 92% 29.70 in 5.0 mi East 17.3 mph 23.0 mph 0.05 in Rain Light Rain
11:53 AM 32.0 °F 22.1 °F 30.0 °F 92% 29.74 in 3.0 mi ENE 13.8 mph 25.3 mph 0.08 in   Overcast
12:28 PM 32.0 °F 20.1 °F 30.2 °F 93% 29.71 in 2.5 mi ENE 19.6 mph 24.2 mph 0.07 in   Overcast
12:31 PM 32.0 °F 20.1 °F 28.4 °F 87% 29.70 in 3.0 mi East 19.6 mph 24.2 mph 0.08 in Rain Light Freezing Rain
12:42 PM 30.2 °F 18.5 °F 28.4 °F 93% 29.71 in 4.0 mi East 17.3 mph 28.8 mph 0.08 in Rain Light Freezing Rain
12:53 PM 30.9 °F 20.2 °F 28.9 °F 92% 29.70 in 4.0 mi East 15.0 mph 24.2 mph 0.09 in Rain Light Freezing Rain
12:57 PM 30.2 °F 20.2 °F 28.4 °F 93% 29.70 in 2.5 mi East 12.7 mph 24.2 mph 0.01 in Rain Light Freezing Rain
1:15 PM 32.0 °F 22.1 °F 28.4 °F 87% 29.71 in 3.0 mi ENE 13.8 mph 25.3 mph 0.04 in Rain Light Freezing Rain
1:25 PM 32.0 °F 23.0 °F 28.4 °F 87% 29.72 in 5.0 mi ENE 11.5 mph - 0.05 in Rain Light Freezing Rain
1:37 PM 32.0 °F 23.0 °F 28.4 °F 87% 29.73 in 3.0 mi ENE 11.5 mph - 0.05 in Rain Light Freezing Rain
1:49 PM 32.0 °F 21.6 °F 28.4 °F 87% 29.69 in 2.5 mi ENE 15.0 mph - 0.07 in Rain Light Freezing Rain
1:53 PM 32.0 °F 22.1 °F 28.9 °F 88% 29.69 in 2.5 mi ENE 13.8 mph - 0.08 in Rain Light Freezing Rain
2:01 PM 30.2 °F 17.8 °F 28.4 °F 93% 29.67 in 4.0 mi ENE 19.6 mph 25.3 mph 0.00 in Rain Light Freezing Rain
2:15 PM 30.2 °F 18.5 °F 28.4 °F 93% 29.68 in 9.0 mi East 17.3 mph 25.3 mph 0.00 in   Overcast
2:53 PM 30.9 °F 19.8 °F 28.9 °F 92% 29.71 in 7.0 mi NE 16.1 mph - 0.01 in   Overcast
3:08 PM 30.2 °F 18.9 °F 28.4 °F 93% 29.69 in 3.0 mi ENE 16.1 mph - 0.03 in Rain Light Freezing Rain
3:21 PM 30.2 °F 19.3 °F 28.4 °F 93% 29.70 in 6.0 mi NE 15.0 mph - 0.04 in Rain Light Freezing Rain
3:30 PM 30.2 °F 18.9 °F 28.4 °F 93% 29.71 in 7.0 mi NE 16.1 mph - 0.05 in Rain Light Freezing Rain
3:51 PM 30.2 °F 18.9 °F 28.4 °F 93% 29.72 in 4.0 mi NE 16.1 mph - 0.05 in Rain Light Freezing Rain
3:53 PM 30.9 °F 19.4 °F 28.0 °F 89% 29.73 in 4.0 mi NE 17.3 mph - 0.05 in Rain Light Freezing Rain
4:10 PM 30.2 °F 18.5 °F 28.4 °F 93% 29.73 in 3.0 mi NE 17.3 mph - N/A Snow Light Snow
4:13 PM 30.2 °F 19.8 °F 28.4 °F 93% 29.74 in 1.8 mi NE 13.8 mph - N/A Snow Light Snow
4:37 PM 28.4 °F 17.0 °F 26.6 °F 93% 29.74 in 2.0 mi NE 15.0 mph 23.0 mph N/A Snow Light Snow
4:39 PM 28.4 °F 17.0 °F 26.6 °F 93% 29.74 in 1.8 mi NE 15.0 mph - N/A Snow Light Snow
4:43 PM 28.4 °F 15.4 °F 26.6 °F 93% 29.74 in 1.5 mi NE 19.6 mph 23.0 mph N/A Snow Light Snow
4:53 PM 28.9 °F 18.2 °F 26.1 °F 89% 29.79 in 2.0 mi ENE 13.8 mph - N/A Snow Light Snow
4:57 PM 28.4 °F 17.0 °F 26.6 °F 93% 29.76 in 3.0 mi ENE 15.0 mph 21.9 mph N/A   Overcast
5:18 PM 28.4 °F 16.6 °F 26.6 °F 93% 29.77 in 2.5 mi NE 16.1 mph - N/A Snow Light Snow
5:32 PM 26.6 °F 14.3 °F 24.8 °F 93% 29.76 in 5.0 mi ENE 16.1 mph 25.3 mph N/A Snow Light Snow
5:42 PM 26.6 °F 13.1 °F 24.8 °F 93% 29.77 in 8.0 mi NE 19.6 mph 25.3 mph N/A Rain Light Freezing Rain
5:53 PM 27.0 °F 13.5 °F 23.0 °F 85% 29.78 in 6.0 mi ENE 19.6 mph 25.3 mph N/A Rain Light Freezing Rain
6:03 PM 26.6 °F 14.3 °F 23.0 °F 86% 29.76 in 6.0 mi ENE 16.1 mph 25.3 mph N/A   Overcast
6:21 PM 26.6 °F 14.3 °F 24.8 °F 93% 29.76 in 6.0 mi NE 16.1 mph - N/A   Overcast
6:30 PM 26.6 °F 13.4 °F 23.0 °F 86% 29.76 in 5.0 mi ENE 18.4 mph - N/A Rain Light Freezing Rain
6:53 PM 26.1 °F 12.3 °F 23.0 °F 88% 29.73 in 8.0 mi East 19.6 mph - N/A Rain Light Freezing Rain
7:04 PM 26.6 °F 13.1 °F 23.0 °F 86% 29.74 in 10.0 mi East 19.6 mph - N/A Rain Light Freezing Rain
7:23 PM 24.8 °F 12.4 °F 21.2 °F 86% 29.77 in 10.0 mi NE 15.0 mph 21.9 mph N/A   Overcast
7:53 PM 25.0 °F 12.2 °F 21.9 °F 88% 29.85 in 10.0 mi NNE 16.1 mph - N/A   Overcast
8:53 PM 24.1 °F 12.5 °F 21.0 °F 88% 29.86 in 10.0 mi ENE 12.7 mph - N/A   Overcast
9:53 PM 24.1 °F 13.7 °F 21.0 °F 88% 29.90 in 10.0 mi ENE 10.4 mph - N/A   Overcast
10:53 PM 21.9 °F 8.7 °F 19.0 °F 89% 29.92 in 10.0 mi ENE 15.0 mph 23.0 mph N/A   Overcast